[[{"header":{"parameterUnit":"m.s-1","parameterCategory":2,"la1":30.2991,"la2":30.254,"lo1":-89.0895,"lo2":-89.0444,"dy":0.0017,"dx":0.0017,"nx":28,"ny":28,"refTime":"2025-11-21T03:00:00:Z","depth":"0","parameterNumber":2,"parameterNumberName":"U-component_of_CURRENTS"},"data":[0,0,0,0,0,0,0,0,0,0,0,0,0,0,0,0,0,0,0,0,0,0,0,0,0,0,0,0,0,0,0,0,0,0,0,0,0,0,0,0,0,0,0,0,0,0,0,0,0,0,0,0,0,0,0,0,0,0,0.2172,0.2172,0,0.216,0.216,0.216,0.2143,0.2142,0.2142,0.2142,0.2139,0.2139,0.2139,0,0,0,0,0,0,0,0,0,0,0,0,0,0.2195,0.2194,0.2172,0.2172,0.2171,0.216,0.216,0.216,0.2143,0.2142,0.2142,0.2142,0.2139,0.2139,0.2139,0,0,0,0,0,0,0,0,0,0,0,0,0,0.2183,0.2194,0.2172,0.2162,0.2161,0.216,0.216,0.216,0.2143,0.2142,0.2142,0.2142,0.2139,0.2139,0.2139,0.2147,0,0,0.214,0.214,0,0,0,0,0,0,0,0,0.2184,0.2182,0.2164,0.2163,0.2162,0.2153,0.2167,0.2156,0.2143,0.2149,0.2142,0.2142,0.2145,0.2145,0.2142,0.2147,0.2147,0.214,0.214,0.214,0.214,0,0,0,0,0,0,0,0.2185,0.2183,0.2166,0.2164,0.2163,0.2164,0.2162,0.2165,0.2149,0.2148,0.2147,0.2148,0.2145,0.2142,0.2142,0.2146,0.214,0.214,0.214,0.214,0.2184,0.2185,0,0,0,0,0,0,0.2187,0.2183,0.2167,0.2166,0.2173,0.2164,0.2162,0.2156,0.2148,0.2147,0.2148,0.2147,0.2142,0.2142,0.2142,0.217,0.214,0.214,0.214,0.2183,0.2184,0.2185,0,0,0,0,0,0,0.2188,0.2186,0.2167,0.2176,0.2173,0.2164,0.2158,0.2156,0.2154,0.2148,0.2147,0.2149,0.2141,0.2141,0.215,0.2169,0.214,0.214,0.2182,0.2183,0.2185,0.2214,0,0,0,0,0,0,0.2188,0.2186,0.2185,0.2175,0.2173,0.2169,0.2158,0.2156,0.2155,0.2154,0.2148,0.2147,0.2141,0.215,0.215,0.2169,0.214,0.218,0.2182,0.2184,0.2212,0.2216,0.222,0,0,0,0,0,0.2189,0.2189,0.2185,0.2183,0.2171,0.217,0.2168,0.216,0.2156,0.2157,0.2156,0.2148,0.2163,0.2151,0.2151,0.217,0.2179,0.2182,0.2184,0.221,0.2216,0.222,0,0,0,0,0,0,0.2199,0.2187,0.2182,0.2179,0.2176,0.2167,0.2169,0.2164,0.2164,0.2164,0.2156,0.2156,0.2174,0.2168,0.2155,0.219,0.2172,0.2175,0.2192,0.2197,0.2201,0.2196,0.214,0,0,0,0,0,0.2201,0.2197,0.2189,0.2187,0.2187,0.2179,0.2178,0.2173,0.2171,0.217,0.2165,0.2169,0.2184,0.2186,0.2194,0.2208,0.2221,0.2223,0.2227,0.2231,0.2228,0.2284,0.2293,0.2193,0.2193,0.2193,0,0,0.2204,0.2198,0.2196,0.2189,0.2186,0.2188,0.2178,0.2179,0.2183,0.2171,0.2175,0.2183,0.2192,0.2211,0.2219,0.2208,0.2265,0.2234,0.2237,0.2232,0.2287,0.2297,0.2306,0.2195,0.2194,0.2194,0,0,0.2208,0.2204,0.2202,0.2201,0.2199,0.2198,0.22,0.2192,0.2193,0.2202,0.2201,0.2219,0.2228,0.224,0.225,0.2283,0.2289,0.2288,0.2302,0.2357,0.2365,0.2373,0.2397,0.2406,0.2287,0.2288,0.2288,0,0.2214,0.2205,0.2203,0.2203,0.2204,0.2204,0.2205,0.221,0.2206,0.2217,0.2209,0.2246,0.2246,0.2284,0.229,0.2293,0.2315,0.228,0.2363,0.2371,0.2378,0.24,0.2411,0.2289,0.2289,0.2289,0.2289,0,0.2212,0.221,0.2212,0.2211,0.2215,0.2217,0.2223,0.2231,0.2236,0.2245,0.228,0.2287,0.2312,0.2318,0.231,0.2364,0.2359,0.2365,0.2348,0.239,0.2411,0.2421,0.2292,0.2291,0.2291,0.229,0,0,0.2208,0.221,0.221,0.2209,0.2218,0.2218,0.2239,0.2258,0.2281,0.2292,0.233,0.2349,0.236,0.2371,0.2373,0.2405,0.2467,0.2402,0.2404,0.2422,0.2574,0.2494,0.2497,0.2495,0.2497,0.2499,0.2564,0,0.2206,0.2204,0.2209,0.2213,0.2212,0.2228,0.2249,0.2272,0.2298,0.2337,0.2367,0.2406,0.2381,0.2402,0.2433,0.2469,0.2497,0.2448,0.2532,0.2534,0.2457,0.2508,0.2346,0.2384,0.2574,0.2576,0.2577,0,0.2194,0.2196,0.2195,0.2211,0.2214,0.2222,0.2259,0.2281,0.2345,0.2373,0.2422,0.2453,0.2505,0.2482,0.2561,0.2534,0.255,0.2567,0.2571,0.2492,0.2474,0.2375,0.2396,0.2315,0.2593,0.2591,0.259,0,0.2174,0.2184,0.2181,0.2184,0.2207,0.2217,0.2237,0.2289,0.2322,0.2404,0.2452,0.2515,0.256,0.2606,0.263,0.2612,0.2713,0.2702,0.264,0.2634,0.2507,0.2486,0.2454,0.2755,0.2755,0.2755,0.2755,0,0.2158,0.2155,0.217,0.2166,0.218,0.2203,0.2236,0.2272,0.2346,0.2399,0.2469,0.2523,0.2596,0.2657,0.2669,0.2684,0.2752,0.2647,0.2653,0.2511,0.249,0.2422,0.2405,0.2758,0.2757,0.2757,0.2756,0,0.2126,0.2135,0.2134,0.2156,0.2164,0.2173,0.2226,0.2257,0.2336,0.2413,0.2448,0.2553,0.2627,0.2681,0.2757,0.2725,0.2658,0.2737,0.2544,0.2525,0.2364,0.2355,0.2249,0.2184,0.2682,0.2681,0.2679,0,0.2106,0.21,0.2116,0.2117,0.2123,0.2146,0.2166,0.2239,0.2278,0.2418,0.2453,0.256,0.2608,0.2686,0.2652,0.2664,0.2604,0.252,0.2448,0.2334,0.2331,0.2241,0.2189,0.2295,0.2291,0.2287,0.2285,0,0.2073,0.2078,0.2079,0.2082,0.2091,0.2105,0.214,0.217,0.2267,0.234,0.2422,0.2477,0.2535,0.2467,0.2479,0.2465,0.2359,0.2446,0.2392,0.2073,0.1911,0.1857,0.2264,0.2253,0.2256,0.2259,0.226,0.2262,0.2049,0.204,0.2043,0.2037,0.2048,0.2046,0.2039,0.2089,0.2139,0.2207,0.2317,0.2331,0.2306,0.2285,0.2261,0.2087,0.2134,0.1994,0.2009,0.194,0.1814,0.2132,0.2089,0.2092,0.2093,0.2095,0.2096,0,0.2007,0.2,0.1998,0.1982,0.1963,0.1989,0.2005,0.1985,0.1999,0.2059,0.2109,0.2043,0.196,0.1923,0.1768,0.1662,0.1577,0.1614,0.1456,0.1444,0.1777,0.1695,0.1486,0.1486,0.1486,0.1486,0.1486,0.1487,0.1987,0.196,0.1951,0.1897,0.1883,0.1831,0.1818,0.1801,0.1808,0.1759,0.1698,0.1712,0.1686,0.1554,0.1391,0.1353,0.125,0.1139,0.121,0.1446,0.1482,0.1517,0.1434,0.1174,0.1174,0.0754,0.0751,0.0749]},{"header":{"parameterUnit":"m.s-1","parameterCategory":2,"la1":30.2991,"la2":30.254,"lo1":-89.0895,"lo2":-89.0444,"dy":0.0017,"dx":0.0017,"nx":28,"ny":28,"refTime":"2025-11-21T03:00:00:Z","depth":"0","parameterNumber":3,"parameterNumberName":"V-component_of_CURRENTS"},"data":[0,0,0,0,0,0,0,0,0,0,0,0,0,0,0,0,0,0,0,0,0,0,0,0,0,0,0,0,0,0,0,0,0,0,0,0,0,0,0,0,0,0,0,0,0,0,0,0,0,0,0,0,0,0,0,0,0,0,0.0335,0.0335,0,0.0321,0.032,0.032,0.0305,0.0304,0.0304,0.0304,0.0282,0.0282,0.0282,0,0,0,0,0,0,0,0,0,0,0,0,0,0.032,0.0321,0.0335,0.0335,0.0334,0.0321,0.032,0.032,0.0305,0.0304,0.0304,0.0304,0.0283,0.0282,0.0282,0,0,0,0,0,0,0,0,0,0,0,0,0,0.0318,0.0321,0.0335,0.0326,0.0325,0.0321,0.032,0.032,0.0305,0.0304,0.0304,0.0304,0.0283,0.0282,0.0282,0.0282,0,0,0.028,0.0279,0,0,0,0,0,0,0,0,0.0318,0.0318,0.0327,0.0326,0.0325,0.0315,0.0307,0.0307,0.0305,0.0312,0.0304,0.0304,0.0293,0.0292,0.0289,0.0281,0.028,0.0279,0.0279,0.0279,0.0279,0,0,0,0,0,0,0,0.0318,0.0318,0.0328,0.0327,0.0326,0.0313,0.0312,0.0307,0.0303,0.0311,0.031,0.031,0.0293,0.0289,0.0288,0.028,0.0279,0.0279,0.0279,0.0278,0.0275,0.0275,0,0,0,0,0,0,0.0323,0.0319,0.0329,0.0328,0.0322,0.0313,0.0313,0.0318,0.0303,0.0301,0.031,0.0309,0.0291,0.0289,0.0287,0.03,0.0279,0.0278,0.0278,0.0275,0.0275,0.0276,0,0,0,0,0,0,0.0323,0.0324,0.0329,0.0323,0.0323,0.0314,0.032,0.0318,0.0315,0.0303,0.03,0.0309,0.029,0.0288,0.0287,0.0299,0.0278,0.0277,0.0275,0.0275,0.0275,0.0318,0,0,0,0,0,0,0.0323,0.0325,0.0328,0.0324,0.0324,0.0332,0.032,0.0318,0.0316,0.0314,0.0302,0.0299,0.029,0.0288,0.0287,0.0297,0.0277,0.0274,0.0275,0.0275,0.0316,0.032,0.0323,0,0,0,0,0,0.0322,0.0332,0.0329,0.033,0.033,0.0333,0.0331,0.0323,0.0316,0.0319,0.031,0.03,0.0291,0.0288,0.0286,0.0297,0.0274,0.0275,0.0275,0.0315,0.0319,0.0323,0,0,0,0,0,0,0.0327,0.0332,0.0327,0.0338,0.0337,0.033,0.0333,0.0326,0.0321,0.0318,0.0305,0.0302,0.0306,0.0294,0.0292,0.0297,0.028,0.028,0.0311,0.0315,0.0318,0.033,0.0276,0,0,0,0,0,0.033,0.034,0.0338,0.0346,0.0348,0.034,0.0339,0.0333,0.0329,0.0326,0.0318,0.0309,0.0307,0.0305,0.0299,0.0303,0.0295,0.0307,0.0311,0.0314,0.0321,0.0326,0.033,0.0278,0.0278,0.0278,0,0,0.0333,0.0337,0.0342,0.0347,0.0346,0.0357,0.0339,0.0341,0.0351,0.0325,0.0334,0.0321,0.031,0.0316,0.0316,0.0308,0.0322,0.0314,0.0317,0.0323,0.0327,0.0332,0.0337,0.0278,0.0278,0.0278,0,0,0.0349,0.0349,0.0364,0.0368,0.037,0.0368,0.037,0.0366,0.0365,0.037,0.0355,0.0351,0.0345,0.0341,0.0339,0.0357,0.034,0.035,0.0379,0.0383,0.0388,0.0392,0.0382,0.0384,0.0352,0.0352,0.0353,0,0.0352,0.0373,0.0367,0.0384,0.0394,0.0376,0.0397,0.0394,0.0389,0.0396,0.0379,0.0379,0.0361,0.0377,0.0377,0.0366,0.036,0.0366,0.0389,0.0393,0.0396,0.0385,0.0387,0.0355,0.0354,0.0354,0.0354,0,0.0383,0.0398,0.0408,0.0427,0.0435,0.0448,0.0448,0.0451,0.0445,0.0444,0.0455,0.0432,0.0435,0.0423,0.0402,0.0419,0.0403,0.0393,0.0381,0.0404,0.039,0.0392,0.0358,0.0357,0.0356,0.0356,0,0,0.0397,0.0426,0.0429,0.0451,0.0461,0.0475,0.0491,0.0508,0.0532,0.0514,0.0549,0.0521,0.0506,0.0502,0.0476,0.0469,0.0473,0.0439,0.0438,0.0434,0.0473,0.0449,0.0449,0.0469,0.047,0.047,0.0451,0,0.0425,0.0469,0.0474,0.0517,0.0544,0.054,0.0565,0.0575,0.0578,0.0605,0.0581,0.0601,0.0539,0.0547,0.0527,0.0497,0.0481,0.0478,0.0447,0.0446,0.0427,0.0452,0.0472,0.0456,0.0453,0.0453,0.0454,0,0.0457,0.0486,0.0533,0.0579,0.0591,0.0612,0.0655,0.0676,0.0698,0.0704,0.0707,0.0694,0.0684,0.0632,0.0583,0.0584,0.0529,0.0493,0.0492,0.0459,0.0427,0.0433,0.0459,0.0413,0.0456,0.0456,0.0456,0,0.0482,0.0528,0.0571,0.0586,0.0631,0.0653,0.0679,0.0706,0.0747,0.0776,0.0815,0.0786,0.0796,0.0728,0.0638,0.0618,0.0585,0.0552,0.0474,0.0471,0.0477,0.0473,0.0462,0.0515,0.0515,0.0515,0.0515,0,0.0516,0.055,0.0588,0.0613,0.0676,0.0693,0.0762,0.078,0.0834,0.0907,0.0874,0.0927,0.0821,0.0787,0.0684,0.0591,0.062,0.0487,0.0472,0.049,0.0488,0.0438,0.0402,0.0514,0.0514,0.0515,0.0515,0,0.0539,0.056,0.0616,0.0669,0.069,0.0738,0.0822,0.0877,0.0918,0.1016,0.1038,0.104,0.0998,0.0881,0.0778,0.0663,0.054,0.0525,0.0543,0.053,0.0402,0.0368,0.0334,0.0302,0.0441,0.044,0.044,0,0.0556,0.0587,0.0657,0.0697,0.0723,0.0796,0.0855,0.0913,0.0984,0.1096,0.1155,0.1147,0.1159,0.0993,0.0798,0.0623,0.0544,0.0506,0.0463,0.0407,0.0358,0.034,0.0313,0.0482,0.0482,0.0482,0.0482,0,0.0594,0.0614,0.066,0.0743,0.0807,0.0891,0.098,0.1049,0.1142,0.1237,0.1347,0.137,0.1224,0.1065,0.0809,0.0678,0.0484,0.0497,0.0449,0.0399,0.0372,0.033,0.0469,0.0481,0.0482,0.0482,0.0482,0.0482,0.0619,0.0657,0.0716,0.0795,0.0872,0.0972,0.1051,0.1161,0.1293,0.144,0.1468,0.1513,0.1291,0.0955,0.0787,0.0486,0.0475,0.0391,0.0355,0.0343,0.0311,0.0437,0.0424,0.0423,0.0423,0.0423,0.0423,0,0.0648,0.0693,0.0767,0.0861,0.0944,0.0984,0.1127,0.1221,0.138,0.1502,0.1603,0.1501,0.1254,0.0963,0.0575,0.039,0.0319,0.0289,0.0282,0.0259,0.0389,0.039,0.0359,0.0359,0.0359,0.0359,0.0359,0.0359,0.0666,0.0728,0.0765,0.0898,0.097,0.1092,0.1174,0.1321,0.1429,0.1562,0.1573,0.1572,0.1356,0.0781,0.0409,0.0311,0.0198,0.0166,0.0101,0.0203,0.0211,0.0218,0.0212,0.0144,0.0144,0.0008,0.0006,0.0005]}],[{"header":{"parameterUnit":"m.s-1","parameterCategory":2,"la1":30.2991,"la2":30.254,"lo1":-89.0895,"lo2":-89.0444,"dy":0.0017,"dx":0.0017,"nx":28,"ny":28,"refTime":"2025-11-21T03:00:00:Z","depth":"2","parameterNumber":2,"parameterNumberName":"U-component_of_CURRENTS"},"data":[0,0,0,0,0,0,0,0,0,0,0,0,0,0,0,0,0,0,0,0,0,0,0,0,0,0,0,0,0,0,0,0,0,0,0,0,0,0,0,0,0,0,0,0,0,0,0,0,0,0,0,0,0,0,0,0,0,0,0.1848,0.1848,0,0.1851,0.1851,0.185,0.1848,0.1848,0.1848,0.1848,0.1853,0.1853,0.1853,0,0,0,0,0,0,0,0,0,0,0,0,0,0.1852,0.1852,0.1848,0.1849,0.1849,0.1851,0.1851,0.185,0.1848,0.1848,0.1848,0.1848,0.1853,0.1853,0.1853,0,0,0,0,0,0,0,0,0,0,0,0,0,0.1851,0.1852,0.1848,0.1848,0.1849,0.1851,0.1851,0.185,0.1848,0.1848,0.1848,0.1848,0.1853,0.1853,0.1853,0.1854,0,0,0.1854,0.1854,0,0,0,0,0,0,0,0,0.1851,0.185,0.1848,0.1848,0.1849,0.185,0.1854,0.1852,0.1848,0.1847,0.1848,0.1848,0.1853,0.1853,0.1852,0.1854,0.1854,0.1854,0.1854,0.1854,0.1854,0,0,0,0,0,0,0,0.1851,0.185,0.1848,0.1848,0.1849,0.1852,0.1852,0.1853,0.1849,0.1847,0.1847,0.1849,0.1853,0.1851,0.1852,0.1854,0.1854,0.1854,0.1854,0.1854,0.1902,0.1903,0,0,0,0,0,0,0.1853,0.185,0.1848,0.1848,0.1851,0.1852,0.1852,0.1848,0.1849,0.1849,0.1849,0.1849,0.1851,0.1851,0.1852,0.1888,0.1854,0.1854,0.1854,0.1901,0.1902,0.1903,0,0,0,0,0,0,0.1853,0.1852,0.1848,0.1851,0.1851,0.1852,0.1849,0.1849,0.1856,0.1851,0.1851,0.1858,0.1851,0.1852,0.1865,0.1887,0.1854,0.1854,0.1899,0.1901,0.1903,0.1937,0,0,0,0,0,0,0.1853,0.1852,0.1855,0.1851,0.1851,0.1855,0.1849,0.1849,0.1858,0.1858,0.1858,0.1858,0.1851,0.1865,0.1866,0.1886,0.1854,0.1898,0.19,0.1902,0.1935,0.194,0.1945,0,0,0,0,0,0.1853,0.1855,0.1855,0.1855,0.1853,0.1856,0.1856,0.1856,0.1858,0.1863,0.1868,0.1859,0.188,0.1866,0.1866,0.1888,0.1897,0.19,0.1902,0.1933,0.1939,0.1945,0,0,0,0,0,0,0.1858,0.1855,0.1855,0.1856,0.1859,0.1856,0.1863,0.1863,0.187,0.1875,0.1868,0.1869,0.1891,0.1886,0.1871,0.191,0.1889,0.1892,0.1912,0.1918,0.1923,0.1922,0.1854,0,0,0,0,0,0.1861,0.1861,0.186,0.1863,0.1866,0.1867,0.1871,0.1872,0.1876,0.1879,0.1879,0.1887,0.19,0.1906,0.1912,0.1929,0.1938,0.1946,0.1951,0.1955,0.1956,0.2001,0.201,0.1912,0.1912,0.1912,0,0,0.1864,0.1863,0.1863,0.1865,0.1868,0.1875,0.1869,0.1879,0.1888,0.1879,0.1894,0.1902,0.1909,0.1931,0.1941,0.193,0.1987,0.1958,0.1962,0.196,0.2005,0.2014,0.2023,0.1914,0.1913,0.1913,0,0,0.1869,0.1871,0.1873,0.1878,0.1887,0.1888,0.1894,0.1897,0.1904,0.1922,0.1921,0.1943,0.1956,0.1965,0.1973,0.201,0.2012,0.2017,0.204,0.2084,0.2093,0.21,0.212,0.2129,0.2019,0.2019,0.2019,0,0.1876,0.1874,0.1876,0.1882,0.1888,0.1896,0.1903,0.1913,0.1921,0.1934,0.1933,0.1974,0.1975,0.201,0.2021,0.2021,0.204,0.2015,0.2091,0.2098,0.2105,0.2124,0.2133,0.2021,0.2021,0.2021,0.2021,0,0.1878,0.1884,0.1888,0.1896,0.1905,0.1914,0.1926,0.1941,0.1956,0.1968,0.2008,0.2018,0.2044,0.2052,0.2046,0.2098,0.2093,0.2092,0.2074,0.2117,0.2134,0.2143,0.2024,0.2023,0.2023,0.2022,0,0,0.1874,0.1887,0.1889,0.1894,0.1913,0.1918,0.1945,0.1968,0.1996,0.2017,0.2058,0.2081,0.2096,0.2106,0.2109,0.2141,0.2201,0.2138,0.214,0.2154,0.2291,0.2216,0.2218,0.2221,0.2223,0.2224,0.228,0,0.1876,0.1883,0.1893,0.1908,0.1912,0.1935,0.1959,0.1987,0.2019,0.2062,0.2093,0.2133,0.2115,0.214,0.217,0.22,0.2228,0.2185,0.2249,0.225,0.2177,0.2228,0.2017,0.2044,0.2289,0.2291,0.2292,0,0.187,0.1876,0.1886,0.191,0.1917,0.1932,0.1977,0.2003,0.2068,0.21,0.2151,0.218,0.2232,0.2215,0.2284,0.2262,0.2277,0.2292,0.2295,0.2218,0.2193,0.2042,0.2051,0.2307,0.2306,0.2305,0.2304,0,0.1849,0.187,0.1876,0.1883,0.1915,0.1933,0.1959,0.2016,0.205,0.2134,0.2178,0.224,0.2283,0.2324,0.2346,0.2332,0.242,0.2405,0.2347,0.2341,0.2169,0.2144,0.2455,0.2455,0.2455,0.2454,0.2454,0,0.1835,0.1841,0.1868,0.187,0.1893,0.1924,0.1967,0.2007,0.2081,0.2129,0.2197,0.2243,0.2316,0.2368,0.2381,0.239,0.2451,0.2358,0.2358,0.2174,0.215,0.2381,0.2372,0.2457,0.2456,0.2456,0.2455,0,0.1806,0.1822,0.1832,0.1866,0.1879,0.1898,0.1961,0.1993,0.2072,0.2141,0.2174,0.2269,0.2334,0.2385,0.2455,0.2424,0.2448,0.2432,0.2197,0.2168,0.2329,0.2322,0.2381,0.2379,0.2377,0.2375,0.2374,0,0.1788,0.1789,0.1821,0.1828,0.1844,0.188,0.1904,0.198,0.2018,0.2141,0.2167,0.2265,0.2298,0.2368,0.2345,0.2356,0.2424,0.2163,0.209,0.2331,0.2326,0.2321,0.2315,0.1875,0.187,0.1866,0.1863,0,0.1758,0.1773,0.1781,0.1798,0.1817,0.1835,0.1878,0.1907,0.1999,0.2046,0.2106,0.2146,0.2208,0.2117,0.2139,0.2116,0.2145,0.2076,0.241,0.1924,0.1859,0.1852,0.1863,0.1825,0.1829,0.1831,0.1833,0.1835,0.1738,0.1735,0.175,0.1756,0.1776,0.1777,0.1768,0.1815,0.1845,0.1886,0.1977,0.1959,0.1978,0.1895,0.1832,0.1781,0.1938,0.1841,0.1853,0.1869,0.1798,0.1733,0.1661,0.1664,0.1666,0.1668,0.167,0,0.1701,0.17,0.1706,0.1698,0.1681,0.1721,0.1732,0.1697,0.1685,0.1735,0.1749,0.1596,0.1526,0.1556,0.1404,0.1392,0.1367,0.1341,0.1287,0.1325,0.1359,0.1261,0.0982,0.098,0.0978,0.0977,0,0,0.1683,0.1661,0.1652,0.1597,0.1599,0.1552,0.154,0.1495,0.1492,0.143,0.1394,0.149,0.1521,0.1251,0.1197,0.1063,0.1192,0.1017,0.1569,0.1546,0.1578,0.1647,0.1539,0,0,0,0,0]},{"header":{"parameterUnit":"m.s-1","parameterCategory":2,"la1":30.2991,"la2":30.254,"lo1":-89.0895,"lo2":-89.0444,"dy":0.0017,"dx":0.0017,"nx":28,"ny":28,"refTime":"2025-11-21T03:00:00:Z","depth":"2","parameterNumber":3,"parameterNumberName":"V-component_of_CURRENTS"},"data":[0,0,0,0,0,0,0,0,0,0,0,0,0,0,0,0,0,0,0,0,0,0,0,0,0,0,0,0,0,0,0,0,0,0,0,0,0,0,0,0,0,0,0,0,0,0,0,0,0,0,0,0,0,0,0,0,0,0,0.0135,0.0135,0,0.0119,0.0119,0.0118,0.0105,0.0104,0.0104,0.0104,0.0078,0.0078,0.0077,0,0,0,0,0,0,0,0,0,0,0,0,0,0.0124,0.0125,0.0135,0.0135,0.0134,0.0119,0.0119,0.0118,0.0105,0.0104,0.0104,0.0104,0.0079,0.0078,0.0077,0,0,0,0,0,0,0,0,0,0,0,0,0,0.012,0.0125,0.0135,0.0126,0.0125,0.0119,0.0119,0.0118,0.0105,0.0104,0.0104,0.0104,0.0079,0.0078,0.0077,0.0074,0,0,0.0074,0.0074,0,0,0,0,0,0,0,0,0.012,0.012,0.0128,0.0127,0.0126,0.0114,0.0105,0.0103,0.0105,0.0112,0.0104,0.0104,0.009,0.0088,0.0084,0.0073,0.0071,0.0074,0.0074,0.0073,0.0073,0,0,0,0,0,0,0,0.0121,0.0121,0.0127,0.0128,0.0127,0.0114,0.0113,0.0105,0.0101,0.0111,0.011,0.011,0.0089,0.0085,0.0084,0.0071,0.0074,0.0073,0.0073,0.0072,0.0065,0.0066,0,0,0,0,0,0,0.0126,0.0121,0.0128,0.0127,0.0124,0.0114,0.0113,0.0117,0.0101,0.0099,0.011,0.0109,0.0087,0.0085,0.0083,0.0093,0.0073,0.0072,0.0072,0.0065,0.0065,0.0066,0,0,0,0,0,0,0.0126,0.0127,0.0129,0.0124,0.0124,0.0115,0.0119,0.0117,0.0116,0.0101,0.0098,0.0111,0.0087,0.0084,0.0081,0.0092,0.0072,0.0071,0.0065,0.0065,0.0066,0.0105,0,0,0,0,0,0,0.0126,0.0127,0.0131,0.0125,0.0124,0.0131,0.0119,0.0117,0.0116,0.0115,0.0101,0.0098,0.0087,0.0083,0.008,0.009,0.007,0.0064,0.0065,0.0065,0.0103,0.0106,0.0109,0,0,0,0,0,0.0125,0.0134,0.0131,0.0132,0.013,0.0131,0.013,0.0122,0.0117,0.012,0.011,0.0099,0.0085,0.0082,0.0079,0.0089,0.0064,0.0065,0.0065,0.0101,0.0106,0.0109,0,0,0,0,0,0,0.013,0.0133,0.013,0.0138,0.0137,0.0129,0.0131,0.0125,0.012,0.0118,0.0103,0.01,0.0101,0.0089,0.0086,0.0089,0.0073,0.0073,0.0101,0.0105,0.0108,0.0119,0.007,0,0,0,0,0,0.0133,0.014,0.0139,0.0145,0.0147,0.0139,0.0138,0.0133,0.0128,0.0126,0.0116,0.0107,0.0101,0.0099,0.009,0.0092,0.0081,0.0096,0.01,0.0103,0.011,0.0104,0.0107,0.0069,0.0069,0.0069,0,0,0.0135,0.0138,0.0142,0.0147,0.0145,0.0155,0.0138,0.014,0.0149,0.0124,0.0131,0.0117,0.0104,0.0106,0.0106,0.0099,0.0106,0.0104,0.0106,0.0112,0.0105,0.0109,0.0112,0.0069,0.0069,0.0069,0,0,0.0147,0.0148,0.016,0.0164,0.0166,0.0164,0.0167,0.0163,0.0162,0.0166,0.015,0.0145,0.0137,0.013,0.0126,0.0142,0.0123,0.0138,0.0166,0.016,0.0163,0.0166,0.0152,0.0153,0.0141,0.0141,0.0141,0,0.015,0.0167,0.0162,0.0177,0.0185,0.0173,0.0189,0.0187,0.0182,0.0187,0.0175,0.0168,0.015,0.016,0.0162,0.0151,0.0141,0.0152,0.0165,0.0168,0.017,0.0154,0.0155,0.0143,0.0143,0.0143,0.0143,0,0.0174,0.0187,0.0195,0.0213,0.0219,0.0231,0.0232,0.0236,0.0232,0.023,0.0236,0.0214,0.0212,0.0203,0.0186,0.0195,0.018,0.0169,0.0157,0.0176,0.0158,0.0159,0.0146,0.0145,0.0145,0.0144,0,0,0.0184,0.0208,0.0212,0.0229,0.0241,0.0252,0.0267,0.0282,0.0301,0.0287,0.0312,0.0288,0.0274,0.0268,0.0245,0.0237,0.0233,0.0211,0.0209,0.0199,0.0216,0.0199,0.0197,0.0225,0.0225,0.0226,0.0196,0,0.0206,0.0242,0.0247,0.0283,0.0305,0.0304,0.0327,0.0336,0.0338,0.0357,0.0335,0.0348,0.0301,0.0304,0.0285,0.0252,0.0236,0.0242,0.0196,0.0194,0.018,0.0198,0.0212,0.0187,0.0196,0.0196,0.0196,0,0.023,0.0254,0.0293,0.0331,0.0341,0.036,0.0396,0.0415,0.0431,0.0436,0.0435,0.0419,0.0406,0.0366,0.0313,0.032,0.0269,0.0237,0.0235,0.0208,0.0179,0.0169,0.0186,0.0196,0.0196,0.0196,0.0196,0,0.0248,0.0287,0.0322,0.0335,0.0374,0.0393,0.0415,0.0439,0.0471,0.0491,0.0516,0.0488,0.0489,0.0427,0.0346,0.0334,0.0288,0.0263,0.0199,0.0197,0.0195,0.0192,0.0225,0.0225,0.0226,0.0226,0.0226,0,0.0274,0.0302,0.0335,0.0356,0.0409,0.0423,0.0481,0.0497,0.0538,0.0592,0.056,0.059,0.0505,0.0465,0.0378,0.0292,0.0309,0.021,0.0193,0.0207,0.0206,0.0202,0.02,0.0224,0.0225,0.0225,0.0225,0,0.029,0.0309,0.0355,0.04,0.0419,0.0459,0.053,0.0575,0.0604,0.0674,0.0688,0.0674,0.0628,0.0531,0.0437,0.0342,0.0258,0.0219,0.0236,0.0222,0.0159,0.0159,0.015,0.0149,0.0148,0.0148,0.0147,0,0.0302,0.0327,0.0387,0.0424,0.0446,0.0509,0.056,0.0606,0.0661,0.0728,0.0768,0.0746,0.0741,0.059,0.044,0.0296,0.0265,0.0193,0.0169,0.017,0.0154,0.0155,0.0156,0.0176,0.0176,0.0176,0.0176,0,0.0328,0.0347,0.0386,0.046,0.0515,0.0588,0.0661,0.0717,0.0786,0.0839,0.0898,0.0899,0.0775,0.0641,0.0441,0.0332,0.0217,0.0185,0.0195,0.0193,0.0192,0.0178,0.0178,0.0175,0.0175,0.0175,0.0175,0.0175,0.0346,0.0378,0.0429,0.05,0.0569,0.0658,0.0721,0.0807,0.0897,0.0983,0.098,0.0979,0.0834,0.0585,0.0411,0.0217,0.0227,0.014,0.0141,0.0143,0.0151,0.015,0.0125,0.0125,0.0125,0.0124,0.0124,0,0.037,0.0406,0.0469,0.055,0.0625,0.0665,0.0783,0.0847,0.0955,0.1029,0.1071,0.0919,0.0782,0.0605,0.0334,0.0168,0.015,0.0097,0.012,0.0122,0.0124,0.0132,0.01,0.01,0.0099,0.0098,0,0,0.0382,0.0435,0.0464,0.0576,0.0643,0.0747,0.0817,0.0913,0.0986,0.1045,0.1049,0.1047,0.0846,0.0639,0.0425,0.0267,0.0224,0.0222,0.0261,0.0317,0.032,0.0169,0.0187,0,0,0,0,0]}],[{"header":{"parameterUnit":"m.s-1","parameterCategory":2,"la1":30.2991,"la2":30.254,"lo1":-89.0895,"lo2":-89.0444,"dy":0.0017,"dx":0.0017,"nx":28,"ny":28,"refTime":"2025-11-21T03:00:00:Z","depth":"4","parameterNumber":2,"parameterNumberName":"U-component_of_CURRENTS"},"data":[0,0,0,0,0,0,0,0,0,0,0,0,0,0,0,0,0,0,0,0,0,0,0,0,0,0,0,0,0,0,0,0,0,0,0,0,0,0,0,0,0,0,0,0,0,0,0,0,0,0,0,0,0,0,0,0,0,0,0.1116,0.1116,0,0.1146,0.1147,0.1147,0.1176,0.1177,0.1177,0.1178,0.1211,0.1212,0.1212,0,0,0,0,0,0,0,0,0,0,0,0,0,0.1084,0.1084,0.1116,0.1116,0.1117,0.1146,0.1147,0.1147,0.1176,0.1177,0.1177,0.1178,0.1211,0.1211,0.1212,0,0,0,0,0,0,0,0,0,0,0,0,0,0.1103,0.1084,0.1116,0.1136,0.1138,0.1146,0.1147,0.1147,0.1176,0.1177,0.1178,0.1178,0.1211,0.1211,0.1212,0.12,0,0,0.1214,0.1214,0,0,0,0,0,0,0,0,0.1102,0.1104,0.1133,0.1135,0.1137,0.116,0.1148,0.1165,0.1176,0.116,0.1178,0.1179,0.1195,0.1197,0.1198,0.1201,0.1203,0.1214,0.1214,0.1215,0.1215,0,0,0,0,0,0,0,0.11,0.1103,0.1126,0.1133,0.1136,0.1144,0.1148,0.1151,0.1171,0.1161,0.1164,0.117,0.1196,0.1198,0.1199,0.1203,0.1214,0.1214,0.1215,0.1215,0.1278,0.1279,0,0,0,0,0,0,0.1099,0.1101,0.1125,0.1127,0.1123,0.1144,0.1148,0.115,0.1171,0.1176,0.1169,0.1171,0.1196,0.1199,0.1201,0.1257,0.1215,0.1215,0.1215,0.1277,0.1278,0.128,0,0,0,0,0,0,0.1098,0.11,0.1124,0.1116,0.112,0.1144,0.1147,0.1151,0.1179,0.1177,0.1182,0.1196,0.1197,0.12,0.1228,0.1256,0.1215,0.1216,0.1275,0.1277,0.1279,0.1324,0,0,0,0,0,0,0.1097,0.11,0.1113,0.1116,0.1121,0.1144,0.1146,0.1151,0.118,0.1184,0.1202,0.1204,0.1198,0.1228,0.1229,0.1256,0.1216,0.1273,0.1276,0.1278,0.1321,0.1327,0.1333,0,0,0,0,0,0.1095,0.1105,0.1114,0.1117,0.1134,0.1145,0.1148,0.1167,0.1181,0.1195,0.1212,0.1205,0.1244,0.1229,0.123,0.1258,0.1272,0.1275,0.1278,0.1318,0.1326,0.1333,0,0,0,0,0,0,0.11,0.1109,0.1119,0.1132,0.1147,0.1151,0.117,0.1181,0.1205,0.1218,0.1217,0.1221,0.1256,0.1252,0.1235,0.1284,0.1259,0.1262,0.1289,0.1296,0.1302,0.13,0.1217,0,0,0,0,0,0.1106,0.1118,0.1127,0.1142,0.1151,0.1166,0.1179,0.1192,0.1207,0.122,0.1232,0.1249,0.1264,0.1277,0.1286,0.131,0.1313,0.1331,0.1337,0.1342,0.1343,0.138,0.139,0.1289,0.1289,0.1289,0,0,0.1112,0.112,0.1129,0.1145,0.1159,0.1173,0.1177,0.1203,0.1221,0.1219,0.1256,0.127,0.1276,0.1305,0.1321,0.1308,0.1373,0.1346,0.135,0.1348,0.1384,0.1394,0.1403,0.1291,0.1291,0.1291,0,0,0.1122,0.114,0.1151,0.1165,0.1191,0.1198,0.1212,0.1232,0.1251,0.1285,0.129,0.1321,0.1345,0.1353,0.136,0.1404,0.1403,0.1415,0.1444,0.1481,0.1489,0.1497,0.1512,0.152,0.1418,0.1419,0.1419,0,0.1135,0.1145,0.1158,0.1173,0.1189,0.1212,0.1228,0.1247,0.1277,0.1298,0.1307,0.1361,0.1366,0.14,0.1417,0.1418,0.1434,0.1415,0.1489,0.1496,0.1503,0.1517,0.1525,0.1421,0.1421,0.1421,0.142,0,0.1143,0.1163,0.1174,0.1198,0.1216,0.1237,0.126,0.1291,0.1323,0.1343,0.1398,0.1412,0.1446,0.1456,0.1451,0.1503,0.1497,0.1491,0.1469,0.1516,0.1527,0.1535,0.1425,0.1424,0.1423,0.1422,0,0,0.1136,0.1172,0.118,0.1195,0.1233,0.1245,0.1286,0.1322,0.1357,0.14,0.1447,0.1481,0.1504,0.1513,0.1518,0.1547,0.1607,0.1545,0.1546,0.1557,0.1684,0.1559,0.1556,0.1624,0.1625,0.1627,0.1672,0,0.1142,0.1168,0.1187,0.1221,0.1234,0.1272,0.1304,0.1346,0.139,0.1442,0.1479,0.1527,0.1522,0.1551,0.1582,0.1604,0.1632,0.1595,0.164,0.164,0.1521,0.1562,0.1632,0.1678,0.168,0.1681,0.1682,0,0.1138,0.1157,0.1187,0.1229,0.1241,0.127,0.1332,0.1366,0.144,0.1479,0.154,0.1573,0.1628,0.1619,0.1685,0.1667,0.1682,0.1692,0.1694,0.1565,0.153,0.1622,0.1697,0.1696,0.1695,0.1694,0.1693,0,0.1111,0.1155,0.118,0.1195,0.1247,0.128,0.1317,0.1386,0.1424,0.1515,0.156,0.1627,0.1672,0.1712,0.1737,0.1727,0.18,0.1786,0.1683,0.1674,0.1753,0.1744,0.1832,0.1832,0.1832,0.1832,0.1831,0,0.1091,0.1115,0.1175,0.1187,0.1228,0.1274,0.1331,0.138,0.1459,0.1503,0.1584,0.1622,0.1703,0.1749,0.1764,0.1744,0.1826,0.1689,0.168,0.177,0.1763,0.1758,0.1749,0.1833,0.1833,0.1833,0.1832,0,0.1053,0.1092,0.1125,0.119,0.1215,0.1249,0.1332,0.1367,0.1453,0.1517,0.1552,0.1644,0.1698,0.1753,0.1813,0.176,0.1764,0.1735,0.1825,0.182,0.1607,0.16,0.1623,0.1619,0.1615,0.1612,0.161,0,0.103,0.1045,0.1121,0.1144,0.1179,0.1237,0.1271,0.1358,0.139,0.1508,0.1523,0.1617,0.1665,0.1647,0.1713,0.1728,0.1706,0.1689,0.1643,0.1598,0.1587,0.1585,0.1583,0.1605,0.1604,0.1603,0.1602,0,0.099,0.1032,0.106,0.1106,0.1148,0.1182,0.1238,0.125,0.1342,0.1437,0.1456,0.1483,0.1535,0.1568,0.1591,0.1599,0.169,0.1653,0.166,0.1616,0.1576,0.1569,0.157,0.159,0.1592,0.1593,0.1594,0,0.0969,0.0978,0.1022,0.1052,0.1099,0.1104,0.1144,0.1169,0.1209,0.1327,0.1329,0.1427,0.1514,0.1501,0.1525,0.1521,0.1495,0.1433,0.145,0.1464,0.139,0.1314,0.1241,0,0,0,0,0,0.0939,0.0936,0.096,0.0978,0.1019,0.1045,0.1106,0.1144,0.1231,0.1206,0.1261,0.13,0.1326,0.1376,0.1341,0.1462,0.1508,0.1414,0.1447,0.1525,0.1539,0.1466,0,0,0,0,0,0,0.0916,0.0939,0.0935,0.0908,0.0907,0.0936,0.0972,0.1033,0.1018,0.1115,0.1138,0.1211,0.1264,0.1337,0.1315,0.133,0.1319,0.1475,0.147,0.1518,0.153,0.1541,0.147,0,0,0,0,0]},{"header":{"parameterUnit":"m.s-1","parameterCategory":2,"la1":30.2991,"la2":30.254,"lo1":-89.0895,"lo2":-89.0444,"dy":0.0017,"dx":0.0017,"nx":28,"ny":28,"refTime":"2025-11-21T03:00:00:Z","depth":"4","parameterNumber":3,"parameterNumberName":"V-component_of_CURRENTS"},"data":[0,0,0,0,0,0,0,0,0,0,0,0,0,0,0,0,0,0,0,0,0,0,0,0,0,0,0,0,0,0,0,0,0,0,0,0,0,0,0,0,0,0,0,0,0,0,0,0,0,0,0,0,0,0,0,0,0,0,0.0095,0.0094,0,0.0084,0.0083,0.0083,0.0074,0.0074,0.0074,0.0074,0.0057,0.0056,0.0056,0,0,0,0,0,0,0,0,0,0,0,0,0,0.0087,0.0088,0.0095,0.0094,0.0094,0.0084,0.0083,0.0083,0.0074,0.0074,0.0074,0.0074,0.0057,0.0056,0.0056,0,0,0,0,0,0,0,0,0,0,0,0,0,0.0084,0.0088,0.0095,0.0089,0.0088,0.0084,0.0083,0.0083,0.0074,0.0074,0.0074,0.0074,0.0057,0.0056,0.0056,0.0054,0,0,0.0054,0.0054,0,0,0,0,0,0,0,0,0.0085,0.0085,0.009,0.0089,0.0088,0.008,0.0075,0.0073,0.0074,0.0079,0.0074,0.0074,0.0064,0.0063,0.0061,0.0053,0.0052,0.0054,0.0053,0.0053,0.0053,0,0,0,0,0,0,0,0.0085,0.0085,0.009,0.009,0.0089,0.008,0.0079,0.0074,0.0072,0.0079,0.0078,0.0077,0.0064,0.0061,0.006,0.0052,0.0054,0.0053,0.0053,0.0053,0.0049,0.0049,0,0,0,0,0,0,0.0088,0.0085,0.009,0.009,0.0087,0.008,0.008,0.0083,0.0072,0.007,0.0077,0.0077,0.0062,0.0061,0.006,0.0069,0.0053,0.0053,0.0052,0.0049,0.0049,0.005,0,0,0,0,0,0,0.0088,0.0089,0.0091,0.0087,0.0087,0.0081,0.0084,0.0083,0.0083,0.0071,0.007,0.0079,0.0062,0.006,0.0059,0.0067,0.0052,0.0052,0.0049,0.0049,0.0049,0.0079,0,0,0,0,0,0,0.0088,0.0089,0.0093,0.0088,0.0087,0.0092,0.0084,0.0083,0.0082,0.0082,0.0072,0.007,0.0062,0.006,0.0059,0.0066,0.0051,0.0048,0.0049,0.0049,0.0078,0.0081,0.0083,0,0,0,0,0,0.0088,0.0094,0.0093,0.0093,0.0092,0.0093,0.0092,0.0086,0.0083,0.0085,0.0079,0.0071,0.0062,0.006,0.0058,0.0066,0.0048,0.0049,0.0049,0.0077,0.008,0.0083,0,0,0,0,0,0,0.0092,0.0094,0.0092,0.0098,0.0097,0.0091,0.0093,0.0089,0.0086,0.0085,0.0074,0.0072,0.0074,0.0065,0.0063,0.0066,0.0054,0.0054,0.0075,0.0078,0.0081,0.0088,0.0051,0,0,0,0,0,0.0095,0.0101,0.0099,0.0104,0.0105,0.0099,0.0099,0.0095,0.0091,0.009,0.0084,0.0077,0.0074,0.0073,0.0067,0.0069,0.0056,0.0073,0.0075,0.0077,0.0082,0.0068,0.007,0.0052,0.0052,0.0052,0,0,0.0097,0.0099,0.0102,0.0105,0.0104,0.0111,0.0099,0.01,0.0107,0.0088,0.0095,0.0086,0.0076,0.0079,0.0079,0.0074,0.0075,0.0078,0.008,0.0083,0.0069,0.0071,0.0073,0.0052,0.0052,0.0052,0,0,0.0105,0.0107,0.0115,0.0118,0.0119,0.0118,0.012,0.0117,0.0117,0.0121,0.011,0.0106,0.0102,0.0097,0.0094,0.0106,0.0088,0.0104,0.0124,0.0111,0.0113,0.0114,0.0096,0.0095,0.0107,0.0107,0.0107,0,0.0108,0.0119,0.0117,0.0126,0.0133,0.0124,0.0136,0.0136,0.0132,0.0135,0.0128,0.0122,0.0111,0.0117,0.012,0.0113,0.01,0.0114,0.0115,0.0116,0.0116,0.0097,0.0096,0.0108,0.0108,0.0108,0.0108,0,0.0123,0.0134,0.0139,0.0152,0.0157,0.0165,0.0167,0.0171,0.0169,0.0168,0.0171,0.0156,0.0153,0.0148,0.0138,0.014,0.0127,0.0119,0.0108,0.012,0.0099,0.0097,0.011,0.011,0.0109,0.0109,0,0,0.0128,0.0147,0.015,0.0162,0.0172,0.0179,0.0193,0.0203,0.0215,0.0207,0.022,0.0208,0.0196,0.0192,0.0177,0.0166,0.0154,0.0146,0.0145,0.013,0.0122,0.0112,0.0109,0.0146,0.0146,0.0146,0.0104,0,0.0142,0.0167,0.0172,0.0199,0.0213,0.0216,0.0233,0.024,0.0241,0.0251,0.0235,0.0241,0.0215,0.0215,0.0199,0.0169,0.0152,0.0166,0.0111,0.0109,0.0101,0.0107,0.0146,0.0103,0.0102,0.0102,0.0102,0,0.0156,0.0173,0.0201,0.023,0.0237,0.0252,0.0278,0.0292,0.0301,0.0302,0.0298,0.0285,0.0272,0.0247,0.0198,0.0209,0.0167,0.0139,0.0137,0.0117,0.0097,0.0088,0.0098,0.0098,0.0099,0.0099,0.0099,0,0.0164,0.0193,0.0218,0.0228,0.0258,0.0274,0.0292,0.0308,0.0329,0.0336,0.035,0.0324,0.032,0.0269,0.0206,0.0203,0.0148,0.0135,0.0085,0.0083,0.0091,0.009,0.0096,0.0096,0.0096,0.0096,0.0096,0,0.0177,0.0198,0.0226,0.0241,0.0278,0.0292,0.0332,0.0344,0.037,0.0402,0.0378,0.039,0.0326,0.0286,0.022,0.0148,0.0155,0.009,0.0074,0.0104,0.0105,0.0089,0.0089,0.0095,0.0095,0.0095,0.0096,0,0.0182,0.0199,0.0232,0.0268,0.0283,0.0311,0.0366,0.0396,0.0415,0.0455,0.0463,0.0442,0.0395,0.0321,0.0237,0.0173,0.0102,0.0071,0.0108,0.0095,0.004,0.0042,0.0014,0.0014,0.0013,0.0013,0.0012,0,0.0186,0.0203,0.025,0.0277,0.0297,0.0343,0.0382,0.0417,0.0452,0.0487,0.0508,0.0478,0.0452,0.0329,0.0242,0.0117,0.0095,0.0047,0.0042,0.0045,0.0033,0.0035,0.0038,0.0011,0.0011,0.0011,0.0011,0,0.0194,0.0211,0.024,0.0295,0.0338,0.0393,0.0447,0.0476,0.0523,0.0539,0.0548,0.0492,0.0437,0.0335,0.0239,0.0147,0.0074,0.0041,0.0041,0.0036,0.0041,0.003,0.0033,0.0009,0.0009,0.001,0.001,0,0.02,0.022,0.026,0.0311,0.0367,0.0427,0.0457,0.0503,0.054,0.0575,0.0573,0.0517,0.0484,0.035,0.0261,0.0172,0.0143,0.0098,0.0095,0.0095,0.0128,0.0147,0.0137,0,0,0,0,0,0.0206,0.0231,0.0275,0.0332,0.039,0.0427,0.0496,0.0525,0.0566,0.0578,0.0579,0.0529,0.0409,0.0357,0.0267,0.024,0.012,0.0128,0.0063,-0.0001,0.0001,0.0024,0,0,0,0,0,0,0.021,0.0248,0.0271,0.0342,0.0386,0.0455,0.0502,0.0534,0.0542,0.0565,0.0507,0.0486,0.0372,0.0461,0.0259,0.0233,0.0174,0.0077,0.0074,-0.0002,-0.0001,0.0001,0.0026,0,0,0,0,0]}]]